Time,TemperatureF,DewpointF,PressureIn,WindDirection,WindDirectionDegrees,WindSpeedMPH,WindSpeedGustMPH,Humidity,HourlyPrecipIn,Conditions,Clouds,dailyrainin,SoftwareType,DateUTC
2013-01-15 00:00:00,31.9,26.4,30.29,North,5,0.0,1.0,80,0.00,,,0.00,WeatherCatV1.00B22,2013-01-15 05:00:00,
2013-01-15 00:05:00,31.9,26.4,30.29,North,5,0.0,0.0,80,0.00,,,0.00,WeatherCatV1.00B22,2013-01-15 05:05:00,
2013-01-15 00:10:00,31.9,26.4,30.30,North,5,0.0,1.0,80,0.00,,,0.00,WeatherCatV1.00B22,2013-01-15 05:10:00,
2013-01-15 00:15:00,31.9,26.4,30.31,North,5,0.0,1.0,80,0.00,,,0.00,WeatherCatV1.00B22,2013-01-15 05:15:00,
2013-01-15 00:20:00,31.9,26.7,30.32,North,5,1.0,2.0,81,0.00,,,0.00,WeatherCatV1.00B22,2013-01-15 05:20:00,
2013-01-15 00:25:00,31.9,26.4,30.31,North,11,0.0,1.0,80,0.00,,,0.00,WeatherCatV1.00B22,2013-01-15 05:25:00,
2013-01-15 00:30:00,31.9,26.4,30.30,NNE,32,1.0,4.0,80,0.00,,,0.00,WeatherCatV1.00B22,2013-01-15 05:30:00,
2013-01-15 00:35:00,31.9,26.4,30.29,NNE,32,2.0,2.0,80,0.00,,,0.00,WeatherCatV1.00B22,2013-01-15 05:35:00,
2013-01-15 00:40:00,31.9,26.4,30.28,NNE,32,0.0,0.0,80,0.00,,,0.00,WeatherCatV1.00B22,2013-01-15 05:40:00,
2013-01-15 00:45:00,31.8,26.0,30.30,NNE,32,0.0,0.0,79,0.00,,,0.00,WeatherCatV1.00B22,2013-01-15 05:45:00,
2013-01-15 00:50:00,31.7,26.2,30.29,NNE,32,0.0,2.0,80,0.00,,,0.00,WeatherCatV1.00B22,2013-01-15 05:50:00,
2013-01-15 00:55:00,31.6,26.2,30.29,NNE,32,0.0,0.0,80,0.00,,,0.00,WeatherCatV1.00B22,2013-01-15 05:55:00,
2013-01-15 01:00:00,31.6,26.2,30.30,NNE,32,1.0,2.0,80,0.00,,,0.00,WeatherCatV1.00B22,2013-01-15 06:00:00,
2013-01-15 01:05:00,31.5,26.1,30.29,NNE,32,0.0,0.0,80,0.00,,,0.00,WeatherCatV1.00B22,2013-01-15 06:05:00,
2013-01-15 01:10:00,31.5,25.8,30.28,NNE,32,1.0,2.0,79,0.00,,,0.00,WeatherCatV1.00B22,2013-01-15 06:10:00,
2013-01-15 01:15:00,31.4,26.3,30.27,NNE,32,0.0,0.0,81,0.00,,,0.00,WeatherCatV1.00B22,2013-01-15 06:15:00,
2013-01-15 01:20:00,31.3,26.2,30.27,NNE,32,0.0,0.0,81,0.00,,,0.00,WeatherCatV1.00B22,2013-01-15 06:20:00,
2013-01-15 01:25:00,31.2,26.1,30.27,NNE,32,0.0,0.0,81,0.00,,,0.00,WeatherCatV1.00B22,2013-01-15 06:25:00,
2013-01-15 01:30:00,31.1,26.3,30.28,NNE,32,0.0,1.0,82,0.00,,,0.00,WeatherCatV1.00B22,2013-01-15 06:30:00,
2013-01-15 01:35:00,31.1,26.3,30.28,NNE,32,0.0,0.0,82,0.00,,,0.00,WeatherCatV1.00B22,2013-01-15 06:35:00,
2013-01-15 01:40:00,31.0,26.2,30.28,NNE,32,1.0,1.0,82,0.00,,,0.00,WeatherCatV1.00B22,2013-01-15 06:40:00,
2013-01-15 01:45:00,31.0,25.9,30.29,NNE,32,1.0,2.0,81,0.00,,,0.00,WeatherCatV1.00B22,2013-01-15 06:45:00,
2013-01-15 01:50:00,31.0,25.6,30.26,NNE,32,0.0,1.0,80,0.00,,,0.00,WeatherCatV1.00B22,2013-01-15 06:50:00,
2013-01-15 01:55:00,30.9,25.8,30.27,NNE,32,0.0,0.0,81,0.00,,,0.00,WeatherCatV1.00B22,2013-01-15 06:55:00,
2013-01-15 02:00:00,30.9,25.5,30.28,NNE,32,0.0,1.0,80,0.00,,,0.00,WeatherCatV1.00B22,2013-01-15 07:00:00,
2013-01-15 02:05:00,30.9,25.8,30.26,NNE,32,0.0,1.0,81,0.00,,,0.00,WeatherCatV1.00B22,2013-01-15 07:05:00,
2013-01-15 02:10:00,30.8,26.0,30.28,NNE,32,0.0,0.0,82,0.00,,,0.00,WeatherCatV1.00B22,2013-01-15 07:10:00,
2013-01-15 02:15:00,30.7,25.9,30.28,NNE,32,0.0,0.0,82,0.00,,,0.00,WeatherCatV1.00B22,2013-01-15 07:15:00,
2013-01-15 02:20:00,30.7,25.9,30.28,NNE,32,0.0,0.0,82,0.00,,,0.00,WeatherCatV1.00B22,2013-01-15 07:20:00,
2013-01-15 02:25:00,30.6,25.8,30.27,NNE,32,0.0,0.0,82,0.00,,,0.00,WeatherCatV1.00B22,2013-01-15 07:25:00,
2013-01-15 02:30:00,30.5,25.7,30.27,NNE,32,0.0,1.0,82,0.00,,,0.00,WeatherCatV1.00B22,2013-01-15 07:30:00,
2013-01-15 02:35:00,30.5,25.7,30.27,NNE,32,0.0,0.0,82,0.00,,,0.00,WeatherCatV1.00B22,2013-01-15 07:35:00,
2013-01-15 02:40:00,30.5,25.7,30.26,NNE,32,0.0,0.0,82,0.00,,,0.00,WeatherCatV1.00B22,2013-01-15 07:40:00,
2013-01-15 02:45:00,30.4,25.6,30.26,NNE,32,0.0,0.0,82,0.00,,,0.00,WeatherCatV1.00B22,2013-01-15 07:45:00,
2013-01-15 02:50:00,30.4,25.9,30.25,NNE,32,0.0,0.0,83,0.00,,,0.00,WeatherCatV1.00B22,2013-01-15 07:50:00,
2013-01-15 02:55:00,30.3,25.8,30.25,NNE,32,0.0,1.0,83,0.00,,,0.00,WeatherCatV1.00B22,2013-01-15 07:55:00,
2013-01-15 03:00:00,30.2,25.7,30.26,NNE,32,0.0,0.0,83,0.00,,,0.00,WeatherCatV1.00B22,2013-01-15 08:00:00,
2013-01-15 03:05:00,30.2,25.7,30.27,NNE,32,0.0,0.0,83,0.00,,,0.00,WeatherCatV1.00B22,2013-01-15 08:05:00,
2013-01-15 03:10:00,30.2,25.7,30.26,NNE,32,0.0,0.0,83,0.00,,,0.00,WeatherCatV1.00B22,2013-01-15 08:10:00,
2013-01-15 03:15:00,30.2,25.4,30.26,NNE,32,0.0,0.0,82,0.00,,,0.00,WeatherCatV1.00B22,2013-01-15 08:15:00,
2013-01-15 03:20:00,30.1,25.6,30.25,NNE,32,0.0,1.0,83,0.00,,,0.00,WeatherCatV1.00B22,2013-01-15 08:20:00,
2013-01-15 03:25:00,29.9,25.4,30.25,NNE,32,0.0,0.0,83,0.00,,,0.00,WeatherCatV1.00B22,2013-01-15 08:25:00,
2013-01-15 03:30:00,29.7,25.2,30.26,NNE,32,0.0,0.0,83,0.00,,,0.00,WeatherCatV1.00B22,2013-01-15 08:30:00,
2013-01-15 03:35:00,29.5,25.0,30.26,NNE,32,0.0,0.0,83,0.00,,,0.00,WeatherCatV1.00B22,2013-01-15 08:35:00,
2013-01-15 03:40:00,29.3,24.8,30.26,NNE,32,0.0,0.0,83,0.00,,,0.00,WeatherCatV1.00B22,2013-01-15 08:40:00,
2013-01-15 03:45:00,29.3,25.1,30.26,NNE,32,0.0,0.0,84,0.00,,,0.00,WeatherCatV1.00B22,2013-01-15 08:45:00,
2013-01-15 03:50:00,29.1,24.9,30.26,NNE,32,0.0,0.0,84,0.00,,,0.00,WeatherCatV1.00B22,2013-01-15 08:50:00,
2013-01-15 03:55:00,29.0,24.8,30.26,NNE,32,0.0,0.0,84,0.00,,,0.00,WeatherCatV1.00B22,2013-01-15 08:55:00,
2013-01-15 04:00:00,29.0,24.5,30.26,NNE,32,0.0,0.0,83,0.00,,,0.00,WeatherCatV1.00B22,2013-01-15 09:00:00,
2013-01-15 04:05:00,28.8,24.3,30.26,NNE,32,0.0,0.0,83,0.00,,,0.00,WeatherCatV1.00B22,2013-01-15 09:05:00,
2013-01-15 04:10:00,28.7,24.2,30.26,NNE,32,0.0,0.0,83,0.00,,,0.00,WeatherCatV1.00B22,2013-01-15 09:10:00,
2013-01-15 04:15:00,28.6,24.1,30.26,NNE,32,0.0,0.0,83,0.00,,,0.00,WeatherCatV1.00B22,2013-01-15 09:15:00,
2013-01-15 04:20:00,28.4,24.2,30.26,NNE,32,0.0,0.0,84,0.00,,,0.00,WeatherCatV1.00B22,2013-01-15 09:20:00,
2013-01-15 04:25:00,28.2,24.0,30.26,NNE,32,0.0,0.0,84,0.00,,,0.00,WeatherCatV1.00B22,2013-01-15 09:25:00,
2013-01-15 04:30:00,28.1,24.2,30.25,NNE,32,0.0,0.0,85,0.00,,,0.00,WeatherCatV1.00B22,2013-01-15 09:30:00,
2013-01-15 04:35:00,28.0,24.1,30.25,NNE,32,0.0,1.0,85,0.00,,,0.00,WeatherCatV1.00B22,2013-01-15 09:35:00,
2013-01-15 04:40:00,27.9,24.0,30.25,NNE,32,0.0,0.0,85,0.00,,,0.00,WeatherCatV1.00B22,2013-01-15 09:40:00,
2013-01-15 04:45:00,27.8,23.9,30.24,NNE,32,0.0,1.0,85,0.00,,,0.00,WeatherCatV1.00B22,2013-01-15 09:45:00,
2013-01-15 04:50:00,27.6,23.7,30.23,NNE,32,0.0,0.0,85,0.00,,,0.00,WeatherCatV1.00B22,2013-01-15 09:50:00,
2013-01-15 04:55:00,27.5,23.9,30.23,NNE,32,0.0,0.0,86,0.00,,,0.00,WeatherCatV1.00B22,2013-01-15 09:55:00,
2013-01-15 05:00:00,27.4,23.8,30.23,NNE,32,1.0,2.0,86,0.00,,,0.00,WeatherCatV1.00B22,2013-01-15 10:00:00,
2013-01-15 05:05:00,27.4,23.8,30.24,NNE,32,0.0,1.0,86,0.00,,,0.00,WeatherCatV1.00B22,2013-01-15 10:05:00,
2013-01-15 05:10:00,27.3,23.7,30.25,NNE,32,0.0,1.0,86,0.00,,,0.00,WeatherCatV1.00B22,2013-01-15 10:10:00,
2013-01-15 05:15:00,27.3,23.7,30.26,NNE,32,2.0,2.0,86,0.00,,,0.00,WeatherCatV1.00B22,2013-01-15 10:15:00,
2013-01-15 05:20:00,27.4,23.8,30.26,NNE,32,1.0,1.0,86,0.00,,,0.00,WeatherCatV1.00B22,2013-01-15 10:20:00,
2013-01-15 05:25:00,27.4,23.8,30.27,NNE,32,0.0,1.0,86,0.00,,,0.00,WeatherCatV1.00B22,2013-01-15 10:25:00,
2013-01-15 05:30:00,27.4,23.8,30.27,NNE,32,0.0,0.0,86,0.00,,,0.00,WeatherCatV1.00B22,2013-01-15 10:30:00,
2013-01-15 05:35:00,27.3,23.7,30.27,NNE,32,0.0,0.0,86,0.00,,,0.00,WeatherCatV1.00B22,2013-01-15 10:35:00,
2013-01-15 05:40:00,27.3,23.7,30.27,NNE,32,0.0,1.0,86,0.00,,,0.00,WeatherCatV1.00B22,2013-01-15 10:40:00,
2013-01-15 05:45:00,27.2,23.6,30.26,NNE,32,0.0,0.0,86,0.00,,,0.00,WeatherCatV1.00B22,2013-01-15 10:45:00,
2013-01-15 05:50:00,27.2,23.6,30.27,NNE,32,0.0,0.0,86,0.00,,,0.00,WeatherCatV1.00B22,2013-01-15 10:50:00,
2013-01-15 05:55:00,27.0,23.4,30.27,NNE,32,0.0,0.0,86,0.00,,,0.00,WeatherCatV1.00B22,2013-01-15 10:55:00,
2013-01-15 06:00:00,26.9,23.3,30.28,NNE,32,0.0,0.0,86,0.00,,,0.00,WeatherCatV1.00B22,2013-01-15 11:00:00,
2013-01-15 06:05:00,26.7,23.4,30.28,NNE,32,0.0,0.0,87,0.00,,,0.00,WeatherCatV1.00B22,2013-01-15 11:05:00,
2013-01-15 06:10:00,26.6,23.3,30.28,NNE,32,0.0,0.0,87,0.00,,,0.00,WeatherCatV1.00B22,2013-01-15 11:10:00,
2013-01-15 06:15:00,26.5,23.4,30.28,NNE,32,0.0,0.0,88,0.00,,,0.00,WeatherCatV1.00B22,2013-01-15 11:15:00,
2013-01-15 06:20:00,26.4,23.3,30.28,NNE,32,0.0,0.0,88,0.00,,,0.00,WeatherCatV1.00B22,2013-01-15 11:20:00,
2013-01-15 06:25:00,26.4,23.6,30.29,NNE,32,0.0,1.0,89,0.00,,,0.00,WeatherCatV1.00B22,2013-01-15 11:25:00,
2013-01-15 06:30:00,26.4,23.6,30.29,NNE,32,0.0,0.0,89,0.00,,,0.00,WeatherCatV1.00B22,2013-01-15 11:30:00,
2013-01-15 06:35:00,26.5,23.7,30.29,NNE,32,0.0,1.0,89,0.00,,,0.00,WeatherCatV1.00B22,2013-01-15 11:35:00,
2013-01-15 06:40:00,26.6,23.8,30.29,NNE,32,0.0,0.0,89,0.00,,,0.00,WeatherCatV1.00B22,2013-01-15 11:40:00,
2013-01-15 06:45:00,26.7,23.9,30.29,NNE,32,0.0,0.0,89,0.00,,,0.00,WeatherCatV1.00B22,2013-01-15 11:45:00,
2013-01-15 06:50:00,26.7,23.9,30.29,NNE,32,0.0,0.0,89,0.00,,,0.00,WeatherCatV1.00B22,2013-01-15 11:50:00,
2013-01-15 06:55:00,26.8,24.0,30.29,NNE,32,0.0,0.0,89,0.00,,,0.00,WeatherCatV1.00B22,2013-01-15 11:55:00,
2013-01-15 07:00:00,26.8,24.3,30.29,NNE,32,0.0,0.0,90,0.00,,,0.00,WeatherCatV1.00B22,2013-01-15 12:00:00,
2013-01-15 07:05:00,26.8,24.3,30.30,NNE,32,0.0,0.0,90,0.00,,,0.00,WeatherCatV1.00B22,2013-01-15 12:05:00,
2013-01-15 07:10:00,26.8,24.3,30.30,NNE,32,0.0,0.0,90,0.00,,,0.00,WeatherCatV1.00B22,2013-01-15 12:10:00,
2013-01-15 07:15:00,26.8,24.3,30.30,NNE,32,0.0,0.0,90,0.00,,,0.00,WeatherCatV1.00B22,2013-01-15 12:15:00,
2013-01-15 07:20:00,26.9,24.4,30.31,NNE,32,0.0,0.0,90,0.00,,,0.00,WeatherCatV1.00B22,2013-01-15 12:20:00,
2013-01-15 07:25:00,27.0,24.5,30.31,NNE,32,0.0,0.0,90,0.00,,,0.00,WeatherCatV1.00B22,2013-01-15 12:25:00,
2013-01-15 07:30:00,27.2,24.7,30.31,NNE,32,0.0,0.0,90,0.00,,,0.00,WeatherCatV1.00B22,2013-01-15 12:30:00,
2013-01-15 07:35:00,27.3,24.5,30.31,NNE,32,0.0,0.0,89,0.00,,,0.00,WeatherCatV1.00B22,2013-01-15 12:35:00,
2013-01-15 07:40:00,27.4,24.6,30.31,NNE,32,0.0,0.0,89,0.00,,,0.00,WeatherCatV1.00B22,2013-01-15 12:40:00,
2013-01-15 07:45:00,27.5,24.7,30.31,NNE,32,0.0,0.0,89,0.00,,,0.00,WeatherCatV1.00B22,2013-01-15 12:45:00,
2013-01-15 07:50:00,27.6,24.8,30.31,NNE,32,0.0,0.0,89,0.00,,,0.00,WeatherCatV1.00B22,2013-01-15 12:50:00,
2013-01-15 07:55:00,27.6,25.1,30.31,NNE,32,0.0,0.0,90,0.00,,,0.00,WeatherCatV1.00B22,2013-01-15 12:55:00,
2013-01-15 08:00:00,27.7,24.9,30.31,NNE,32,0.0,0.0,89,0.00,,,0.00,WeatherCatV1.00B22,2013-01-15 13:00:00,
2013-01-15 08:05:00,27.8,25.0,30.31,NNE,32,0.0,1.0,89,0.00,,,0.00,WeatherCatV1.00B22,2013-01-15 13:05:00,
2013-01-15 08:10:00,27.9,25.1,30.31,NNE,32,0.0,0.0,89,0.00,,,0.00,WeatherCatV1.00B22,2013-01-15 13:10:00,
2013-01-15 08:15:00,28.1,25.3,30.31,NNE,32,0.0,0.0,89,0.00,,,0.00,WeatherCatV1.00B22,2013-01-15 13:15:00,
2013-01-15 08:20:00,28.3,25.5,30.31,NNE,32,0.0,0.0,89,0.00,,,0.00,WeatherCatV1.00B22,2013-01-15 13:20:00,
2013-01-15 08:25:00,28.5,25.7,30.32,NNE,32,0.0,0.0,89,0.00,,,0.00,WeatherCatV1.00B22,2013-01-15 13:25:00,
2013-01-15 08:30:00,28.7,25.6,30.32,NNE,32,0.0,0.0,88,0.00,,,0.00,WeatherCatV1.00B22,2013-01-15 13:30:00,
2013-01-15 08:35:00,29.0,25.6,30.33,NNE,32,0.0,0.0,87,0.00,,,0.00,WeatherCatV1.00B22,2013-01-15 13:35:00,
2013-01-15 08:40:00,29.2,25.5,30.33,NNE,32,0.0,0.0,86,0.00,,,0.00,WeatherCatV1.00B22,2013-01-15 13:40:00,
2013-01-15 08:45:00,29.4,25.2,30.33,NNE,32,0.0,0.0,84,0.00,,,0.00,WeatherCatV1.00B22,2013-01-15 13:45:00,
2013-01-15 08:50:00,29.7,25.8,30.33,NNE,32,0.0,0.0,85,0.00,,,0.00,WeatherCatV1.00B22,2013-01-15 13:50:00,
2013-01-15 08:55:00,30.0,25.8,30.33,NNE,32,0.0,1.0,84,0.00,,,0.00,WeatherCatV1.00B22,2013-01-15 13:55:00,
2013-01-15 09:00:00,30.2,25.7,30.33,NNE,32,0.0,0.0,83,0.00,,,0.00,WeatherCatV1.00B22,2013-01-15 14:00:00,
2013-01-15 09:05:00,30.4,25.9,30.33,NNE,32,0.0,0.0,83,0.00,,,0.00,WeatherCatV1.00B22,2013-01-15 14:05:00,
2013-01-15 09:10:00,30.6,26.1,30.33,NNE,32,0.0,1.0,83,0.00,,,0.00,WeatherCatV1.00B22,2013-01-15 14:10:00,
2013-01-15 09:15:00,30.7,25.9,30.33,NNE,32,0.0,1.0,82,0.00,,,0.00,WeatherCatV1.00B22,2013-01-15 14:15:00,
2013-01-15 09:20:00,30.8,26.0,30.34,NNE,32,1.0,2.0,82,0.00,,,0.00,WeatherCatV1.00B22,2013-01-15 14:20:00,
2013-01-15 09:25:00,31.1,26.8,30.34,NNE,33,1.0,3.0,84,0.00,,,0.00,WeatherCatV1.00B22,2013-01-15 14:25:00,
2013-01-15 09:30:00,31.2,26.1,30.34,NNE,33,0.0,0.0,81,0.00,,,0.00,WeatherCatV1.00B22,2013-01-15 14:30:00,
2013-01-15 09:35:00,31.2,26.1,30.34,NNE,33,0.0,2.0,81,0.00,,,0.00,WeatherCatV1.00B22,2013-01-15 14:35:00,
2013-01-15 09:40:00,31.4,26.6,30.35,NNE,33,0.0,1.0,82,0.00,,,0.00,WeatherCatV1.00B22,2013-01-15 14:40:00,
2013-01-15 09:45:00,31.4,26.3,30.35,NNE,33,1.0,2.0,81,0.00,,,0.00,WeatherCatV1.00B22,2013-01-15 14:45:00,
2013-01-15 09:50:00,31.5,26.4,30.35,NNE,33,0.0,1.0,81,0.00,,,0.00,WeatherCatV1.00B22,2013-01-15 14:50:00,
2013-01-15 09:55:00,31.6,26.5,30.35,NNE,33,0.0,1.0,81,0.00,,,0.00,WeatherCatV1.00B22,2013-01-15 14:55:00,
2013-01-15 10:00:00,31.7,26.5,30.35,NNE,33,0.0,0.0,81,0.00,,,0.00,WeatherCatV1.00B22,2013-01-15 15:00:00,
2013-01-15 10:05:00,31.9,26.1,30.35,NNE,33,1.0,2.0,79,0.00,,,0.00,WeatherCatV1.00B22,2013-01-15 15:05:00,
2013-01-15 10:10:00,31.9,26.1,30.35,NNE,33,0.0,0.0,79,0.00,,,0.00,WeatherCatV1.00B22,2013-01-15 15:10:00,
2013-01-15 10:15:00,32.0,26.2,30.34,NNE,33,0.0,1.0,79,0.00,,,0.00,WeatherCatV1.00B22,2013-01-15 15:15:00,
2013-01-15 10:20:00,32.1,26.3,30.34,NNE,33,0.0,0.0,79,0.00,,,0.00,WeatherCatV1.00B22,2013-01-15 15:20:00,
2013-01-15 10:25:00,32.3,26.2,30.34,NNE,33,0.0,0.0,78,0.00,,,0.00,WeatherCatV1.00B22,2013-01-15 15:25:00,
2013-01-15 10:30:00,32.5,26.1,30.34,NNE,33,1.0,4.0,77,0.00,,,0.00,WeatherCatV1.00B22,2013-01-15 15:30:00,
2013-01-15 10:35:00,32.6,26.5,30.34,WNW,301,0.0,2.0,78,0.00,,,0.00,WeatherCatV1.00B22,2013-01-15 15:35:00,
2013-01-15 10:40:00,32.7,26.9,30.34,WNW,301,0.0,0.0,79,0.00,,,0.00,WeatherCatV1.00B22,2013-01-15 15:40:00,
2013-01-15 10:45:00,33.0,26.9,30.34,WNW,301,0.0,3.0,78,0.00,,,0.00,WeatherCatV1.00B22,2013-01-15 15:45:00,
2013-01-15 10:50:00,32.9,26.5,30.33,NW,323,1.0,3.0,77,0.00,,,0.00,WeatherCatV1.00B22,2013-01-15 15:50:00,
2013-01-15 10:55:00,32.9,26.2,30.33,NW,323,1.0,1.0,76,0.00,,,0.00,WeatherCatV1.00B22,2013-01-15 15:55:00,
2013-01-15 11:00:00,32.9,26.8,30.32,NW,323,0.0,1.0,78,0.00,,,0.00,WeatherCatV1.00B22,2013-01-15 16:00:00,
2013-01-15 11:05:00,32.9,27.1,30.32,NW,323,2.0,2.0,79,0.00,,,0.00,WeatherCatV1.00B22,2013-01-15 16:05:00,
2013-01-15 11:10:00,32.9,26.8,30.32,North,0,2.0,3.0,78,0.00,,,0.00,WeatherCatV1.00B22,2013-01-15 16:10:00,
2013-01-15 11:15:00,33.0,27.2,30.32,North,5,0.0,2.0,79,0.00,,,0.00,WeatherCatV1.00B22,2013-01-15 16:15:00,
2013-01-15 11:20:00,33.1,27.0,30.31,North,5,1.0,2.0,78,0.00,,,0.00,WeatherCatV1.00B22,2013-01-15 16:20:00,
2013-01-15 11:25:00,33.2,26.5,30.31,North,5,0.0,1.0,76,0.00,,,0.00,WeatherCatV1.00B22,2013-01-15 16:25:00,
2013-01-15 11:30:00,33.3,26.6,30.31,North,5,1.0,3.0,76,0.00,,,0.00,WeatherCatV1.00B22,2013-01-15 16:30:00,
2013-01-15 11:35:00,33.3,26.2,30.31,North,5,0.0,2.0,75,0.00,,,0.00,WeatherCatV1.00B22,2013-01-15 16:35:00,
2013-01-15 11:40:00,33.3,25.9,30.31,North,5,0.0,2.0,74,0.00,,,0.00,WeatherCatV1.00B22,2013-01-15 16:40:00,
2013-01-15 11:45:00,33.3,25.6,30.31,North,5,0.0,2.0,73,0.00,,,0.00,WeatherCatV1.00B22,2013-01-15 16:45:00,
2013-01-15 11:50:00,33.3,25.9,30.31,North,5,1.0,2.0,74,0.00,,,0.00,WeatherCatV1.00B22,2013-01-15 16:50:00,
2013-01-15 11:55:00,33.4,25.7,30.31,North,5,0.0,0.0,73,0.00,,,0.00,WeatherCatV1.00B22,2013-01-15 16:55:00,
2013-01-15 12:00:00,33.5,25.5,30.31,North,355,2.0,3.0,72,0.00,,,0.00,WeatherCatV1.00B22,2013-01-15 17:00:00,
2013-01-15 12:05:00,33.4,25.4,30.31,NNW,344,2.0,3.0,72,0.00,,,0.00,WeatherCatV1.00B22,2013-01-15 17:05:00,
2013-01-15 12:10:00,33.3,25.3,30.31,NE,46,3.0,3.0,72,0.00,,,0.00,WeatherCatV1.00B22,2013-01-15 17:10:00,
2013-01-15 12:15:00,33.3,24.9,30.31,NE,42,3.0,3.0,71,0.00,,,0.00,WeatherCatV1.00B22,2013-01-15 17:15:00,
2013-01-15 12:20:00,33.3,24.9,30.31,NE,43,1.0,1.0,71,0.00,,,0.00,WeatherCatV1.00B22,2013-01-15 17:20:00,
2013-01-15 12:25:00,33.3,24.9,30.31,NE,42,1.0,3.0,71,0.00,,,0.00,WeatherCatV1.00B22,2013-01-15 17:25:00,
2013-01-15 12:30:00,33.4,25.4,30.30,NE,42,0.0,2.0,72,0.00,,,0.00,WeatherCatV1.00B22,2013-01-15 17:30:00,
2013-01-15 12:35:00,33.5,25.1,30.30,NE,42,2.0,2.0,71,0.00,,,0.00,WeatherCatV1.00B22,2013-01-15 17:35:00,
2013-01-15 12:40:00,33.5,25.1,30.30,NE,42,0.0,1.0,71,0.00,,,0.00,WeatherCatV1.00B22,2013-01-15 17:40:00,
2013-01-15 12:45:00,33.5,24.8,30.30,North,0,1.0,3.0,70,0.00,,,0.00,WeatherCatV1.00B22,2013-01-15 17:45:00,
2013-01-15 12:50:00,33.5,25.1,30.30,North,0,0.0,1.0,71,0.00,,,0.00,WeatherCatV1.00B22,2013-01-15 17:50:00,
2013-01-15 12:55:00,33.5,24.8,30.29,NNW,347,2.0,2.0,70,0.00,,,0.00,WeatherCatV1.00B22,2013-01-15 17:55:00,
2013-01-15 13:00:00,33.5,24.8,30.29,NW,325,1.0,1.0,70,0.00,,,0.00,WeatherCatV1.00B22,2013-01-15 18:00:00,
2013-01-15 13:05:00,33.6,24.9,30.29,NW,325,0.0,2.0,70,0.00,,,0.00,WeatherCatV1.00B22,2013-01-15 18:05:00,
2013-01-15 13:10:00,33.5,24.4,30.29,NW,324,0.0,3.0,69,0.00,,,0.00,WeatherCatV1.00B22,2013-01-15 18:10:00,
2013-01-15 13:15:00,33.5,24.8,30.29,NW,324,2.0,3.0,70,0.00,,,0.00,WeatherCatV1.00B22,2013-01-15 18:15:00,
2013-01-15 13:20:00,33.5,24.8,30.29,NW,324,0.0,1.0,70,0.00,,,0.00,WeatherCatV1.00B22,2013-01-15 18:20:00,
2013-01-15 13:25:00,33.5,24.8,30.29,NW,324,0.0,1.0,70,0.00,,,0.00,WeatherCatV1.00B22,2013-01-15 18:25:00,
2013-01-15 13:30:00,33.5,24.8,30.29,NW,324,1.0,2.0,70,0.00,,,0.00,WeatherCatV1.00B22,2013-01-15 18:30:00,
2013-01-15 13:35:00,33.5,24.8,30.29,NW,325,0.0,2.0,70,0.00,,,0.00,WeatherCatV1.00B22,2013-01-15 18:35:00,
2013-01-15 13:40:00,33.6,24.9,30.29,NW,325,1.0,1.0,70,0.00,,,0.00,WeatherCatV1.00B22,2013-01-15 18:40:00,
2013-01-15 13:45:00,33.7,25.6,30.29,NW,325,0.0,1.0,72,0.00,,,0.00,WeatherCatV1.00B22,2013-01-15 18:45:00,
2013-01-15 13:50:00,33.7,24.6,30.29,North,355,1.0,2.0,69,0.00,,,0.00,WeatherCatV1.00B22,2013-01-15 18:50:00,
2013-01-15 13:55:00,33.6,24.9,30.29,North,355,0.0,1.0,70,0.00,,,0.00,WeatherCatV1.00B22,2013-01-15 18:55:00,
2013-01-15 14:00:00,33.6,24.5,30.29,North,355,1.0,3.0,69,0.00,,,0.00,WeatherCatV1.00B22,2013-01-15 19:00:00,
2013-01-15 14:05:00,33.6,24.2,30.29,North,355,0.0,2.0,68,0.00,,,0.00,WeatherCatV1.00B22,2013-01-15 19:05:00,
2013-01-15 14:10:00,33.6,24.2,30.29,North,355,1.0,1.0,68,0.00,,,0.00,WeatherCatV1.00B22,2013-01-15 19:10:00,
2013-01-15 14:15:00,33.6,23.8,30.29,North,355,2.0,2.0,67,0.00,,,0.00,WeatherCatV1.00B22,2013-01-15 19:15:00,
2013-01-15 14:20:00,33.6,23.8,30.28,North,355,1.0,1.0,67,0.00,,,0.00,WeatherCatV1.00B22,2013-01-15 19:20:00,
2013-01-15 14:25:00,33.5,24.1,30.28,North,355,0.0,1.0,68,0.00,,,0.00,WeatherCatV1.00B22,2013-01-15 19:25:00,
2013-01-15 14:30:00,33.6,24.2,30.28,North,355,0.0,0.0,68,0.00,,,0.00,WeatherCatV1.00B22,2013-01-15 19:30:00,
2013-01-15 14:35:00,33.6,24.2,30.27,North,355,1.0,2.0,68,0.00,,,0.00,WeatherCatV1.00B22,2013-01-15 19:35:00,
2013-01-15 14:40:00,33.5,23.7,30.27,North,355,2.0,3.0,67,0.00,,,0.00,WeatherCatV1.00B22,2013-01-15 19:40:00,
2013-01-15 14:45:00,33.5,23.7,30.26,NE,49,1.0,4.0,67,0.00,,,0.00,WeatherCatV1.00B22,2013-01-15 19:45:00,
2013-01-15 14:50:00,33.4,23.6,30.26,NE,49,0.0,2.0,67,0.00,,,0.00,WeatherCatV1.00B22,2013-01-15 19:50:00,
2013-01-15 14:55:00,33.4,24.0,30.26,NE,49,0.0,2.0,68,0.00,,,0.00,WeatherCatV1.00B22,2013-01-15 19:55:00,
2013-01-15 15:00:00,33.5,23.7,30.26,NE,49,0.0,2.0,67,0.00,,,0.00,WeatherCatV1.00B22,2013-01-15 20:00:00,
2013-01-15 15:05:00,33.5,24.1,30.26,NE,49,0.0,2.0,68,0.00,,,0.00,WeatherCatV1.00B22,2013-01-15 20:05:00,
2013-01-15 15:10:00,33.5,24.1,30.26,NE,49,0.0,2.0,68,0.00,,,0.00,WeatherCatV1.00B22,2013-01-15 20:10:00,
2013-01-15 15:15:00,33.5,24.8,30.26,NE,49,2.0,2.0,70,0.00,,,0.00,WeatherCatV1.00B22,2013-01-15 20:15:00,
2013-01-15 15:20:00,33.4,24.0,30.27,NNW,347,0.0,1.0,68,0.00,,,0.00,WeatherCatV1.00B22,2013-01-15 20:20:00,
2013-01-15 15:25:00,33.3,24.2,30.28,NNW,347,0.0,0.0,69,0.00,,,0.00,WeatherCatV1.00B22,2013-01-15 20:25:00,
2013-01-15 15:30:00,33.3,24.2,30.28,NNW,347,0.0,0.0,69,0.00,,,0.00,WeatherCatV1.00B22,2013-01-15 20:30:00,
2013-01-15 15:35:00,33.3,23.9,30.28,NNW,347,0.0,1.0,68,0.00,,,0.00,WeatherCatV1.00B22,2013-01-15 20:35:00,
2013-01-15 15:40:00,33.3,24.2,30.28,NNW,346,0.0,1.0,69,0.00,,,0.00,WeatherCatV1.00B22,2013-01-15 20:40:00,
2013-01-15 15:45:00,33.3,24.6,30.28,NNW,347,0.0,1.0,70,0.00,,,0.00,WeatherCatV1.00B22,2013-01-15 20:45:00,
2013-01-15 15:50:00,33.3,24.2,30.28,NNW,347,0.0,0.0,69,0.00,,,0.00,WeatherCatV1.00B22,2013-01-15 20:50:00,
2013-01-15 15:55:00,33.2,24.5,30.29,NNW,347,0.0,0.0,70,0.00,,,0.00,WeatherCatV1.00B22,2013-01-15 20:55:00,
2013-01-15 16:00:00,33.2,24.1,30.29,NNW,347,0.0,0.0,69,0.00,,,0.00,WeatherCatV1.00B22,2013-01-15 21:00:00,
2013-01-15 16:05:00,33.1,24.1,30.29,NNW,347,0.0,0.0,69,0.00,,,0.00,WeatherCatV1.00B22,2013-01-15 21:05:00,
2013-01-15 16:10:00,33.0,24.0,30.29,NNW,347,0.0,0.0,69,0.00,,,0.00,WeatherCatV1.00B22,2013-01-15 21:10:00,
2013-01-15 16:15:00,32.9,23.9,30.29,NNW,347,0.0,0.0,69,0.00,,,0.00,WeatherCatV1.00B22,2013-01-15 21:15:00,
2013-01-15 16:20:00,32.8,23.8,30.29,NNW,347,0.0,0.0,69,0.00,,,0.00,WeatherCatV1.00B22,2013-01-15 21:20:00,
2013-01-15 16:25:00,32.6,23.9,30.30,NNW,346,0.0,1.0,70,0.00,,,0.00,WeatherCatV1.00B22,2013-01-15 21:25:00,
2013-01-15 16:30:00,32.5,24.2,30.30,NNW,347,0.0,0.0,71,0.00,,,0.00,WeatherCatV1.00B22,2013-01-15 21:30:00,
2013-01-15 16:35:00,32.3,24.0,30.30,NNW,347,0.0,0.0,71,0.00,,,0.00,WeatherCatV1.00B22,2013-01-15 21:35:00,
2013-01-15 16:40:00,32.0,24.0,30.30,NNW,346,0.0,0.0,72,0.00,,,0.00,WeatherCatV1.00B22,2013-01-15 21:40:00,
2013-01-15 16:45:00,31.8,24.1,30.29,NNW,347,0.0,0.0,73,0.00,,,0.00,WeatherCatV1.00B22,2013-01-15 21:45:00,
2013-01-15 16:50:00,31.6,23.6,30.29,NNW,347,0.0,0.0,72,0.00,,,0.00,WeatherCatV1.00B22,2013-01-15 21:50:00,
2013-01-15 16:55:00,31.4,23.8,30.29,NNW,347,0.0,0.0,73,0.00,,,0.00,WeatherCatV1.00B22,2013-01-15 21:55:00,
2013-01-15 17:00:00,31.1,23.8,30.28,NNW,347,0.0,0.0,74,0.00,,,0.00,WeatherCatV1.00B22,2013-01-15 22:00:00,
2013-01-15 17:05:00,31.0,23.7,30.29,NNW,347,0.0,0.0,74,0.00,,,0.00,WeatherCatV1.00B22,2013-01-15 22:05:00,
2013-01-15 17:10:00,30.9,23.3,30.28,NNW,346,0.0,0.0,73,0.00,,,0.00,WeatherCatV1.00B22,2013-01-15 22:10:00,
2013-01-15 17:15:00,30.8,23.5,30.28,NNW,347,0.0,1.0,74,0.00,,,0.00,WeatherCatV1.00B22,2013-01-15 22:15:00,
2013-01-15 17:20:00,30.7,23.7,30.28,NNW,347,0.0,1.0,75,0.00,,,0.00,WeatherCatV1.00B22,2013-01-15 22:20:00,
2013-01-15 17:25:00,30.7,24.0,30.29,NNW,347,1.0,1.0,76,0.00,,,0.00,WeatherCatV1.00B22,2013-01-15 22:25:00,
2013-01-15 17:30:00,30.6,23.3,30.28,NNW,347,0.0,0.0,74,0.00,,,0.00,WeatherCatV1.00B22,2013-01-15 22:30:00,
2013-01-15 17:35:00,30.6,23.6,30.29,NNW,347,0.0,1.0,75,0.00,,,0.00,WeatherCatV1.00B22,2013-01-15 22:35:00,
2013-01-15 17:40:00,30.7,24.0,30.30,NNW,347,0.0,0.0,76,0.00,,,0.00,WeatherCatV1.00B22,2013-01-15 22:40:00,
2013-01-15 17:45:00,30.6,24.0,30.30,NNW,347,0.0,0.0,76,0.00,,,0.00,WeatherCatV1.00B22,2013-01-15 22:45:00,
2013-01-15 17:50:00,30.6,24.0,30.30,NNW,347,0.0,0.0,76,0.00,,,0.00,WeatherCatV1.00B22,2013-01-15 22:50:00,
2013-01-15 17:55:00,30.5,23.9,30.30,NNW,347,0.0,0.0,76,0.00,,,0.00,WeatherCatV1.00B22,2013-01-15 22:55:00,
2013-01-15 18:00:00,30.4,24.1,30.30,NNW,347,0.0,0.0,77,0.00,,,0.00,WeatherCatV1.00B22,2013-01-15 23:00:00,
2013-01-15 18:05:00,30.3,24.0,30.30,NNW,347,0.0,0.0,77,0.00,,,0.00,WeatherCatV1.00B22,2013-01-15 23:05:00,
2013-01-15 18:10:00,30.2,23.9,30.30,NNW,347,0.0,0.0,77,0.00,,,0.00,WeatherCatV1.00B22,2013-01-15 23:10:00,
2013-01-15 18:15:00,30.2,23.9,30.30,NNW,347,0.0,0.0,77,0.00,,,0.00,WeatherCatV1.00B22,2013-01-15 23:15:00,
2013-01-15 18:20:00,30.1,24.1,30.30,NNW,347,0.0,0.0,78,0.00,,,0.00,WeatherCatV1.00B22,2013-01-15 23:20:00,
2013-01-15 18:25:00,30.1,23.8,30.30,NNW,347,0.0,0.0,77,0.00,,,0.00,WeatherCatV1.00B22,2013-01-15 23:25:00,
2013-01-15 18:30:00,30.0,24.0,30.30,NNW,347,0.0,0.0,78,0.00,,,0.00,WeatherCatV1.00B22,2013-01-15 23:30:00,
2013-01-15 18:35:00,29.9,23.9,30.29,NNW,347,0.0,0.0,78,0.00,,,0.00,WeatherCatV1.00B22,2013-01-15 23:35:00,
2013-01-15 18:40:00,29.8,23.8,30.30,NNW,347,0.0,0.0,78,0.00,,,0.00,WeatherCatV1.00B22,2013-01-15 23:40:00,
2013-01-15 18:45:00,29.7,23.7,30.30,NNW,346,0.0,0.0,78,0.00,,,0.00,WeatherCatV1.00B22,2013-01-15 23:45:00,
2013-01-15 18:50:00,29.6,23.6,30.29,NNW,347,0.0,0.0,78,0.00,,,0.00,WeatherCatV1.00B22,2013-01-15 23:50:00,
2013-01-15 18:55:00,29.5,23.5,30.30,NNW,347,0.0,0.0,78,0.00,,,0.00,WeatherCatV1.00B22,2013-01-15 23:55:00,
2013-01-15 19:00:00,29.4,23.4,30.29,NNW,347,0.0,0.0,78,0.00,,,0.00,WeatherCatV1.00B22,2013-01-16 00:00:00,
2013-01-15 19:05:00,29.4,23.7,30.29,NNW,347,0.0,0.0,79,0.00,,,0.00,WeatherCatV1.00B22,2013-01-16 00:05:00,
2013-01-15 19:10:00,29.2,23.2,30.29,NNW,347,0.0,0.0,78,0.00,,,0.00,WeatherCatV1.00B22,2013-01-16 00:10:00,
2013-01-15 19:15:00,29.0,23.0,30.29,NNW,346,0.0,0.0,78,0.00,,,0.00,WeatherCatV1.00B22,2013-01-16 00:15:00,
2013-01-15 19:20:00,29.0,22.7,30.28,NNW,346,0.0,0.0,77,0.00,,,0.00,WeatherCatV1.00B22,2013-01-16 00:20:00,
2013-01-15 19:25:00,29.0,23.3,30.28,NNW,347,0.0,0.0,79,0.00,,,0.00,WeatherCatV1.00B22,2013-01-16 00:25:00,
2013-01-15 19:30:00,28.9,23.5,30.28,NNW,347,0.0,0.0,80,0.00,,,0.00,WeatherCatV1.00B22,2013-01-16 00:30:00,
2013-01-15 19:35:00,28.9,23.5,30.28,NNW,347,0.0,0.0,80,0.00,,,0.00,WeatherCatV1.00B22,2013-01-16 00:35:00,
2013-01-15 19:41:00,28.9,23.5,30.28,NNW,347,0.0,0.0,80,0.00,,,0.00,WeatherCatV1.00B22,2013-01-16 00:41:00,
2013-01-15 19:46:00,28.9,23.8,30.28,NNW,346,0.0,0.0,81,0.00,,,0.00,WeatherCatV1.00B22,2013-01-16 00:46:00,
2013-01-15 19:51:00,28.8,23.4,30.28,NNW,346,0.0,0.0,80,0.00,,,0.00,WeatherCatV1.00B22,2013-01-16 00:51:00,
2013-01-15 19:56:00,28.8,24.0,30.29,NNW,347,0.0,0.0,82,0.00,,,0.00,WeatherCatV1.00B22,2013-01-16 00:56:00,
2013-01-15 20:01:00,28.9,23.8,30.29,NNW,347,0.0,0.0,81,0.00,,,0.00,WeatherCatV1.00B22,2013-01-16 01:01:00,
2013-01-15 20:06:00,28.8,24.0,30.28,NNW,347,0.0,0.0,82,0.00,,,0.00,WeatherCatV1.00B22,2013-01-16 01:06:00,
2013-01-15 20:11:00,28.8,23.7,30.28,NNW,347,0.0,0.0,81,0.00,,,0.00,WeatherCatV1.00B22,2013-01-16 01:11:00,
2013-01-15 20:16:00,28.7,23.3,30.27,NNW,346,0.0,0.0,80,0.00,,,0.00,WeatherCatV1.00B22,2013-01-16 01:16:00,
2013-01-15 20:21:00,28.8,23.4,30.27,NNW,346,0.0,1.0,80,0.00,,,0.00,WeatherCatV1.00B22,2013-01-16 01:21:00,
2013-01-15 20:26:00,28.9,23.5,30.28,NNW,347,0.0,1.0,80,0.00,,,0.00,WeatherCatV1.00B22,2013-01-16 01:26:00,
2013-01-15 20:31:00,29.0,23.0,30.28,NNW,346,0.0,1.0,78,0.00,,,0.00,WeatherCatV1.00B22,2013-01-16 01:31:00,
2013-01-15 20:36:00,29.1,23.4,30.28,NNW,347,0.0,0.0,79,0.00,,,0.00,WeatherCatV1.00B22,2013-01-16 01:36:00,
2013-01-15 20:41:00,29.2,23.2,30.28,NNW,346,0.0,0.0,78,0.00,,,0.00,WeatherCatV1.00B22,2013-01-16 01:41:00,
2013-01-15 20:46:00,29.2,23.2,30.28,NNW,347,0.0,0.0,78,0.00,,,0.00,WeatherCatV1.00B22,2013-01-16 01:46:00,
2013-01-15 20:51:00,29.2,23.5,30.27,NNW,347,0.0,0.0,79,0.00,,,0.00,WeatherCatV1.00B22,2013-01-16 01:51:00,
2013-01-15 20:56:00,29.2,23.2,30.27,NNW,347,0.0,0.0,78,0.00,,,0.00,WeatherCatV1.00B22,2013-01-16 01:56:00,
2013-01-15 21:01:00,29.2,22.9,30.27,NNW,347,0.0,0.0,77,0.00,,,0.00,WeatherCatV1.00B22,2013-01-16 02:01:00,
2013-01-15 21:06:00,29.2,23.2,30.27,NNW,347,0.0,0.0,78,0.00,,,0.00,WeatherCatV1.00B22,2013-01-16 02:06:00,
2013-01-15 21:11:00,29.3,23.6,30.26,NNW,347,0.0,0.0,79,0.00,,,0.00,WeatherCatV1.00B22,2013-01-16 02:11:00,
2013-01-15 21:16:00,29.3,23.6,30.26,NNW,347,0.0,0.0,79,0.00,,,0.00,WeatherCatV1.00B22,2013-01-16 02:16:00,
2013-01-15 21:21:00,29.2,23.5,30.26,NNW,347,0.0,0.0,79,0.00,,,0.00,WeatherCatV1.00B22,2013-01-16 02:21:00,
2013-01-15 21:26:00,29.2,23.5,30.25,NNW,347,0.0,0.0,79,0.00,,,0.00,WeatherCatV1.00B22,2013-01-16 02:26:00,
2013-01-15 21:31:00,29.2,23.5,30.25,NNW,347,0.0,0.0,79,0.00,,,0.00,WeatherCatV1.00B22,2013-01-16 02:31:00,
2013-01-15 21:36:00,29.2,23.8,30.25,NNW,347,0.0,0.0,80,0.00,,,0.00,WeatherCatV1.00B22,2013-01-16 02:36:00,
2013-01-15 21:41:00,29.2,23.5,30.25,NNW,347,0.0,0.0,79,0.00,,,0.00,WeatherCatV1.00B22,2013-01-16 02:41:00,
2013-01-15 21:46:00,29.1,23.4,30.25,NNW,347,0.0,0.0,79,0.00,,,0.00,WeatherCatV1.00B22,2013-01-16 02:46:00,
2013-01-15 21:51:00,29.1,23.1,30.25,NNW,347,0.0,1.0,78,0.00,,,0.00,WeatherCatV1.00B22,2013-01-16 02:51:00,
2013-01-15 21:56:00,29.2,23.2,30.25,NNW,346,0.0,0.0,78,0.00,,,0.00,WeatherCatV1.00B22,2013-01-16 02:56:00,
2013-01-15 22:01:00,29.2,23.2,30.25,NNW,346,0.0,0.0,78,0.00,,,0.00,WeatherCatV1.00B22,2013-01-16 03:01:00,
2013-01-15 22:06:00,29.2,22.9,30.25,NNW,346,0.0,0.0,77,0.00,,,0.00,WeatherCatV1.00B22,2013-01-16 03:06:00,
2013-01-15 22:11:00,29.3,23.3,30.25,NNW,347,0.0,0.0,78,0.00,,,0.00,WeatherCatV1.00B22,2013-01-16 03:11:00,
2013-01-15 22:16:00,29.2,22.9,30.24,NNW,347,0.0,0.0,77,0.00,,,0.00,WeatherCatV1.00B22,2013-01-16 03:16:00,
2013-01-15 22:21:00,29.2,22.9,30.24,NNW,346,0.0,0.0,77,0.00,,,0.00,WeatherCatV1.00B22,2013-01-16 03:21:00,
2013-01-15 22:26:00,29.2,22.9,30.25,NNW,347,0.0,0.0,77,0.00,,,0.00,WeatherCatV1.00B22,2013-01-16 03:26:00,
2013-01-15 22:31:00,29.2,23.5,30.25,NNW,347,0.0,0.0,79,0.00,,,0.00,WeatherCatV1.00B22,2013-01-16 03:31:00,
2013-01-15 22:36:00,29.2,23.5,30.25,NNW,347,0.0,0.0,79,0.00,,,0.00,WeatherCatV1.00B22,2013-01-16 03:36:00,
2013-01-15 22:41:00,29.2,23.5,30.25,NNW,347,0.0,1.0,79,0.00,,,0.00,WeatherCatV1.00B22,2013-01-16 03:41:00,
2013-01-15 22:46:00,29.1,23.1,30.25,NNW,347,0.0,0.0,78,0.00,,,0.00,WeatherCatV1.00B22,2013-01-16 03:46:00,
2013-01-15 22:51:00,29.1,23.1,30.25,NNW,347,0.0,0.0,78,0.00,,,0.00,WeatherCatV1.00B22,2013-01-16 03:51:00,
2013-01-15 22:56:00,29.2,23.5,30.25,NNW,346,0.0,0.0,79,0.00,,,0.00,WeatherCatV1.00B22,2013-01-16 03:56:00,
2013-01-15 23:01:00,29.1,23.7,30.24,NNW,347,0.0,0.0,80,0.00,,,0.00,WeatherCatV1.00B22,2013-01-16 04:01:00,
2013-01-15 23:06:00,29.0,23.3,30.24,NNW,347,0.0,0.0,79,0.00,,,0.00,WeatherCatV1.00B22,2013-01-16 04:06:00,
2013-01-15 23:11:00,29.0,23.3,30.25,NNW,347,0.0,0.0,79,0.00,,,0.00,WeatherCatV1.00B22,2013-01-16 04:11:00,
2013-01-15 23:16:00,28.9,23.5,30.24,NNW,346,0.0,0.0,80,0.00,,,0.00,WeatherCatV1.00B22,2013-01-16 04:16:00,
2013-01-15 23:21:00,28.9,23.5,30.24,NNW,347,0.0,0.0,80,0.00,,,0.00,WeatherCatV1.00B22,2013-01-16 04:21:00,
2013-01-15 23:26:00,28.8,23.7,30.24,NNW,346,0.0,0.0,81,0.00,,,0.00,WeatherCatV1.00B22,2013-01-16 04:26:00,
2013-01-15 23:31:00,28.8,23.7,30.23,NNW,346,0.0,0.0,81,0.00,,,0.00,WeatherCatV1.00B22,2013-01-16 04:31:00,
2013-01-15 23:36:00,28.7,23.9,30.23,NNW,347,0.0,0.0,82,0.00,,,0.00,WeatherCatV1.00B22,2013-01-16 04:36:00,
2013-01-15 23:41:00,28.7,23.6,30.23,NNW,347,0.0,0.0,81,0.00,,,0.00,WeatherCatV1.00B22,2013-01-16 04:41:00,
2013-01-15 23:46:00,28.7,23.9,30.24,NNW,347,0.0,0.0,82,0.00,,,0.00,WeatherCatV1.00B22,2013-01-16 04:46:00,
2013-01-15 23:51:00,28.8,24.0,30.23,NNW,347,0.0,0.0,82,0.00,,,0.00,WeatherCatV1.00B22,2013-01-16 04:51:00,
2013-01-15 23:56:00,28.8,23.7,30.23,NNW,347,0.0,0.0,81,0.00,,,0.00,WeatherCatV1.00B22,2013-01-16 04:56:00,